FENGYUN 1C DEB, 38717

Orbit data source: Space-Track

FENGYUN 1C DEB, 38717 is space debris in SSO originally from a launch on Mon, 10 May 1999 UTC launched from the Taiyaun Space Center, China (TSC). Fengyun 1C debris stems from the Chinese weather satellite Fengyun-1C, which was intentionally destroyed by a Chinese anti-satellite missile in 2007. This event dramatically increased the amount of space debris, with thousands of trackable fragments posing hazards to satellites and human spaceflight. The Fengyun 1C debris cloud has become a focal point in discussions about space sustainability and the need for international regulations to prevent the creation of new debris.

Loading next visibility...
Identifier
38717, 1999-025ETJ
Orbit
SSO
Country
Flag of CNCN / PRC
Related business
Manufacturer
Unknown
Mission
Spacecraft
Bus & Motor
Unknown
Mass
Unknown
Launch date (UTC)
1999-05-10 (27 years ago)
Launch vehicle
Unknown
Launch site
Taiyaun Space Center, China (TSC)
Object type
Payload
Rocket body
Debris
Shape & HBR
Unknown shape, 0.1 m
Radar Cross Section
Small (<0.1 m²)

Expand to show TLE details & history
Last TLE update: 2 days ago

TLE from 2 days ago
0 FENGYUN 1C DEB
1 38717U 99025ETJ 26252.34428903  .00001646  00000-0  76424-3 0  9994
2 38717  99.1473 282.0861 0053093 303.8885  68.8898 14.21400083622698
Epoch: 2026-09-09T08:15Z
TLE epoch observation values (Epoch: 2026-09-09T08:15:46.572Z)
Latitude
13.13912°
Longitude
167.60173°
Altitude
809.183 km
Speed
7.457 km/s
True Right ascension
18h 39m 46s
True Declination
13° 03' 49"
Sunlit
Object was in daylight at epoch
Visualization orbit readout
Latitude
Unknown
Longitude
Unknown
Altitude
Unknown
Speed
Unknown
Apparent Right ascension
Unknown
Apparent Declination
Unknown
Sunlit
N/A
Visualization observer readout
Local Sidereal Time
10:04:33
Azimuth
Unknown
Elevation
Unknown
Doppler factor
Unknown
Orbital elements
Apogee altitude
856.005 km
Perigee altitude
779.594 km
Semi-major axis
7,195.937 km
Eccentricity
0.00531
Inclination
99.1473°
RAAN
282.0861°
Arg. of periapsis
303.8885°
True anomaly
69.45872°
Mean anomaly
68.8898°
Eccentric anomaly
69.17413°
Mean motion
3.55559 °/min
Orbital period
101.25 mins
BSTAR
0.00076424
Loading maneuver chart data...
Computing Atmospheric mass density...

Documentation

Showing up to 5 results
|